User: anonymous   Login
Location: Unspecified
(0.0000°N, 0.0000°E)
Time: 10:35:37
(UTC+00:00)
Language:

FORMOSAT 3E - Orbit

View from above orbital plane
View from above orbital plane
View from above satellite
View from above satellite

Ground track
Ground track

The orbit data is extracted from the following two-line orbital elements,

1 29051U 06011E   18111.82525941 +.00000130 +00000-0 +66378-4 0  9991
2 29051 072.0050 259.9296 0069177 207.9103 151.8317 14.28666317629699
Epoch (UTC): 21 April 2018 19:48:22
Eccentricity: 0.0069177
inclination: 72.0050°
perigee height: 746 km
apogee height: 846 km
right ascension of ascending node: 259.9296°
argument of perigee: 207.9103°
revolutions per day: 14.28666317
mean anomaly at epoch: 151.8317°
orbit number at epoch: 62969

The dashed part of the orbit path shows where the satellite is in the earth's shadow,  

DLR